Showing default

COSMOS 2095, 20740

Orbit data source: Space-Track

COSMOS 2095, 20740 is a payload satellite owned by UNKS (CIS) in LEO that was launched on Wed, 08 Aug 1990 UTC via a TSIKLON-3 launch vehicle from the Plesetsk Missile And Space Complex (PKMTR). Payload-class satellites include a variety of spacecraft equipped with specific instruments for various scientific and technological missions. These include communications satellites like Starlink; space stations such as the ISS; scientific satellites like the Hubble; Earth observation satellites from companies like Planet Labs, Umbra, and HawkEye 360; GPS; miniature CubeSats for education and research; and military/defense satellites.

Loading next visibility...
Identifier
20740, 1990-070F
Orbit
LEO
Country
Flag of CISCIS
Related business
Manufacturer
NPO PM
Mission
Defense Communications
Bus & Motor
STRELA-3, Unknown motor
Mass
225 kg wet, 225 kg dry
Launch date (UTC)
1990-08-08 (36 years ago)
Launch vehicle
TSIKLON-3
Launch site
Plesetsk Missile And Space Complex (PKMTR)
Object type
Payload
Rocket body
Debris
Shape & HBR
Cyl, 0.8 m
Radar Cross Section
1.257 m², Large (>1 m²)

Expand to show TLE details & history
Last TLE update: 11 hours ago

TLE from 11 hours ago
0 COSMOS 2095
1 20740U 90070F   26126.46820499  .00000027  00000-0  87743-4 0  9990
2 20740  82.5703 294.3501 0020353 110.8343 277.0843 12.66141046651753
Epoch: 2026-05-06T11:14Z
TLE epoch observation values (Epoch: 2026-05-06T11:14:12.911Z)
Latitude
27.47192°
Longitude
-94.66341°
Altitude
1,399.007 km
Speed
7.164 km/s
True Right ascension
19h 52m 52s
True Declination
27° 20' 35"
Sunlit
Object was in daylight at epoch
Visualization orbit readout
Latitude
Unknown
Longitude
Unknown
Altitude
Unknown
Speed
Unknown
Apparent Right ascension
Unknown
Apparent Declination
Unknown
Sunlit
N/A
Visualization observer readout
Local Sidereal Time
06:09:17
Azimuth
Unknown
Elevation
Unknown
Doppler factor
Unknown
Orbital elements
Apogee altitude
1,410.836 km
Perigee altitude
1,379.194 km
Semi-major axis
7,773.152 km
Eccentricity
0.00204
Inclination
82.5703°
RAAN
294.3501°
Arg. of periapsis
110.8343°
True anomaly
276.85278°
Mean anomaly
277.0843°
Eccentric anomaly
276.96855°
Mean motion
3.167 °/min
Orbital period
113.67 mins
BSTAR
0.000087743
Loading maneuver chart data...
Computing Atmospheric mass density...
Loading historical data...
Loading historical data...
Loading historical data...
Loading historical data...
Loading historical data...
Loading historical data...
Loading historical data...

Documentation

Showing up to 5 results
|